www.pogodaiklimat.ru

Погода и климат >> Архив погоды >> Германия >> Дюссельдорф


ПОГОДА в Дюссельдорфе

  • Прогноз погоды в Дюссельдорфе
  • Монитор погоды в Дюссельдорфе

АРХИВ ПОГОДЫ в Дюссельдорфе

Время (UTC), дата Ветер
(напр.,м/с)
 
Видим.   Явления Облачность Т
(С)
Тd
(С)
f
(%)
Тe
(С)
Тes
(С)
Комфортность P
(гПа)
Po
(гПа)
Тmin
(С)
Tmax
(С)
R
(мм)
R24
(мм)
S
(см)
22 13.09 СВ 3-5
{6}
55 км 1/0
[Ci fib]
+14.7 +8.9 68 +14 +14 1034.6 1029.7
23 13.09 СВ 3-4
{5}
55 км ясно +13.8 +8.7 71 +13 +13 1034.4 1029.4
00 14.09 СВ 2 55 км ясно +12.7 +8.6 76 +12 +12 1034.9 1029.9
01 14.09 СВ 3-3
{4}
50 км ясно +12.3 +8.6 78 +11 +11 1034.7 1029.7
02 14.09 С 3-3
{4}
50 км ясно +11.3 +8.6 83 +9 +9 1034.3 1029.3
03 14.09 С 2-2
{4}
50 км ясно +10.7 +8.5 86 +9 +9 1034.4 1029.4
04 14.09 С 1-1
{2}
45 км ясно +9.9 +8.3 90 +9 +9 1034.4 1029.4
05 14.09 СЗ 1-1
{2}
40 км местами туман поземный 1/0
[Ac trans]
+8.7 +7.6 93 +8 +8 1034.5 1029.4
06 14.09 СВ 1 40 км 1/0
[Ac trans Ci fib]
+8.6 +7.7 94 +8 +8 1034.3 1029.2 +7.8 +18.8
07 14.09 С 2-3
{3}
40 км 1/0
[Ac trans Ci fib]
+11.9 +8.7 81 +11 +12 1034.4 1029.4
08 14.09 С 3-4
{4}
45 км 1/0
[Ci fib]
+15.0 +8.2 64 +14 +17 1034.4 1029.5
09 14.09 СВ 2 50 км 1/0
[Ci fib]
+17.0 +8.2 56 +17 +23 1034.3 1029.4
10 14.09 С 1-2
{4}
50 км 1/0
[Ci fib]
+18.4 +7.0 47 +20 +29 1033.7 1028.8
11 14.09 ЮЗ 2-3
{3}
55 км 1/0
[Ci fib]
+19.7 +7.1 44 +21 +30 комфорт 1033.1 1028.2
12 14.09 С 3 55 км 1/0
[Ci fib]
+20.6 +7.4 42 +22 +30 комфорт 1032.2 1027.4
13 14.09 С 3-5
{7}
55 км 3/0
[Ci fib]
+21.3 +6.2 37 +22 +28 комфорт 1031.8 1027.0
14 14.09 СЗ 2-4
{6}
55 км 4/0
[Ci fib]
+21.5 +4.4 33 +22 +27 комфорт 1031.0 1026.2
15 14.09 С 2 50 км 4/0
[Ci fib]
+21.5 +4.7 33 +22 +25 комфорт 1030.0 1025.2
16 14.09 С 2-4
{5}
50 км 8/0
[Ci fib]
+21.6 +3.7 31 +22 +23 комфорт 1029.4 1024.6
17 14.09 С 2-3
{4}
55 км 8/0
[Ci fib]
+20.6 +4.2 34 +22 +22 комфорт 1029.2 1024.4
18 14.09 СВ 2 50 км 8/0
[Ci sp]
+17.7 +5.8 46 +18 +18 1029.3 1024.4 +8.7 +22.4
19 14.09 В 2-2
{3}
50 км 8/0
[Ci fib]
+13.6 +7.6 67 +13 +13 1028.9 1024.0
20 14.09 С 1-2
{2}
55 км 8/0
[Ci fib]
+12.5 +8.0 74 +13 +13 1029.0 1024.0
21 14.09 СВ 1 55 км 9/0
[Ci fib]
+10.3 +7.5 83 +10 +10 1028.5 1023.5
22 14.09 СВ 1-1
{1}
50 км 8/0
[Ci fib]
+9.5 +7.2 86 +9 +9 1027.7 1022.7
23 14.09 ЮВ 2-2
{2}
50 км 4/0
[Ci fib]
+9.0 +7.2 88 +7 +7 1026.9 1021.9
00 15.09 СВ 1 50 км 1/0
[Ci fib]
+8.5 +7.0 90 +8 +8 1026.7 1021.7
01 15.09 ЮВ 2-3
{3}
50 км 1/0
[Ci fib]
+8.2 +6.9 92 +6 +6 1026.3 1021.3
02 15.09 В 1-3
{4}
45 км 1/0
[Ci fib]
+9.1 +8.0 93 +8 +8 1026.0 1021.0
03 15.09 Ю 1 40 км 4/0
[Ci fib]
+8.9 +7.9 93 +8 +8 1025.6 1020.6
04 15.09 Ю 3-5
{5}
40 км 8/0
[Ci fib]
+10.0 +8.2 89 +8 +8 1025.1 1020.1
05 15.09 Ю 3-4
{4}
50 км 6/0
[Ci fib]
+10.8 +8.0 83 +9 +9 1024.8 1019.8
06 15.09 Ю 3 50 км 6/0
[Ci sp]
+10.7 +8.6 87 +9 +9 1025.1 1020.1 +7.6 +17.4
07 15.09 Ю 3-5
{5}
50 км 6/0
[Ci sp]
+12.8 +9.2 79 +11 +12 1024.7 1019.8
08 15.09 Ю 3-4
{4}
50 км 4/0
[Ci sp]
+15.5 +9.3 67 +15 +18 1024.6 1019.7
09 15.09 Ю 3 50 км 9/0
[Ci sp]
+18.0 +9.5 58 +18 +22 1024.4 1019.6
10 15.09 З 3-5
{5}
50 км 9/0
[Ci sp]
+20.0 +9.5 51 +22 +27 комфорт 1024.5 1019.7
11 15.09 З 5-7
{7}
45 км 9/0
[Ci sp]
+21.6 +8.0 42 +23 +27 комфорт 1024.0 1019.2
12 15.09 ЮЗ 4 40 км 9/0
[Ci fib]
+23.1 +8.8 40 +24 +29 комфорт 1023.3 1018.5
13 15.09 З 5-7
{9}
45 км 9/0
[Ci sp]
+24.0 +8.4 37 +25 +28 комфорт 1022.7 1018.0
14 15.09 ЮЗ 6-8
{8}
45 км 8/0
[Ci fib]
+24.6 +5.6 29 +24 +26 комфорт 1022.0 1017.3
15 15.09 З 5 50 км 3/0
[Ci sp]
+24.7 +5.9 30 +25 +26 комфорт 1021.7 1017.0
16 15.09 З 4-7
{8}
50 км 4/0
[Ci sp]
+24.8 +6.3 30 +25 +26 комфорт 1021.1 1016.4
17 15.09 З 4-6
{8}
50 км 9/0
[Ci sp]
+23.5 +6.6 34 +24 +24 комфорт 1021.1 1016.4
18 15.09 З 2 50 км 8/0
[Ac trans Ci sp]
+21.2 +7.5 41 +22 +22 комфорт 1021.5 1016.7 +10.7 +25.2 0.0
19 15.09 СЗ 3 50 км 9/0
[Ac trans Ci fib]
+19.9 +9.8 52 +21 +21 комфорт 1021.8 1017.0
20 15.09 СЗ 2 50 км 8/1 1350 м
[Sc Ac trans Ci fib]
+18.7 +12.2 66 +20 +20 1022.1 1017.3
21 15.09 СЗ 2 50 км 8/1 1350 м
[Sc Ac trans Ci fib]
+17.8 +13.2 74 +18 +18 1022.1 1017.3
22 15.09 С 2 40 км 9/3 1260 м
[Sc Ac trans Ci fib]
+16.8 +14.2 85 +17 +17 1022.3 1017.5
23 15.09 В 1 40 км 9/3 1440 м
[Sc Ci sp]
+15.7 +13.6 87 +16 +16 1022.1 1017.2
00 16.09 С 1 40 км 9/3 1000 м
[Sc Ci fib]
+14.5 +13.0 91 +15 +15 1021.9 1017.0
01 16.09 СЗ 1 40 км 9/1 1440 м
[Sc Ci sp]
+14.3 +13.3 94 +15 +15 1021.7 1016.8
02 16.09 Ю 1 35 км 9/1 1200 м
[Sc Ac trans]
+13.1 +12.6 97 +13 +13 1021.5 1016.6
03 16.09 З 1 25 км 9/1 1080 м
[Sc Ac trans]
+14.0 +13.4 96 +14 +14 1021.4 1016.5
04 16.09 Ю 1 25 км 9/1 1080 м
[Sc Ac As]
+13.3 +12.6 96 +13 +13 1020.5 1015.6
05 16.09 З 2 15 км в посл. час дождь 9/3 1200 м
[Sc Ac As]
+14.6 +13.7 94 +14 +14 1020.1 1015.2
06 16.09 ЮЗ 1 15 км {дождь} 10/4 1000 м
[Sc Ac As]
+14.3 +13.4 94 +15 +15 1020.3 1015.4 +12.6 +21.2 0.0
07 16.09 Ю 2 18 км 10/4 1200 м
[Sc Ac As]
+15.7 +13.9 89 +16 +16 1020.2 1015.3
08 16.09 З 2 12 км в посл. час дождь 10/9 900 м
[Sc As op]
+16.1 +13.7 86 +16 +16 1020.6 1015.8
09 16.09 ЮЗ 2 15 км в посл. час дождь 10/5 1200 м
[Sc Ac As]
+16.6 +13.6 82 +17 +18 1020.1 1015.3 0.1
10 16.09 ЮЗ 2 20 км 10/5 1200 м
[Sc As op]
+17.3 +13.7 79 +18 +18 1020.0 1015.2
11 16.09 З 3 15 км 10/10 500 м
[Cu Sc]
+17.5 +13.4 77 +18 +18 1020.0 1015.2
12 16.09 З 2 17 км {дождь} 10/10 540 м
[Cu Sc]
+18.1 +13.6 75 +19 +19 1019.7 1014.9
13 16.09 СЗ 3 8000 м дождь 10/10 500 м
[Cu Sc]
+17.7 +14.2 80 +18 +18 1019.7 1014.9
14 16.09 СЗ 3-4
{7}
1700 м дождь 10/10 150 м
[Sc]
+16.2 +15.4 95 +16 +16 1019.8 1015.0
15 16.09 С 4 5000 м слаб. морось {дождь} 10/10 210 м
[Sc]
+15.1 +14.1 94 +14 +14 1020.2 1015.3 0.5
16 16.09 С 3 6000 м слаб. морось {дождь} 10/10 150 м
[Cu Sc]
+14.9 +14.0 94 +14 +14 1020.2 1015.3
17 16.09 С 4 11 км в посл. час морось 10/10 240 м
[Cu Sc]
+14.7 +13.3 91 +13 +13 1020.3 1015.4
18 16.09 С 2 17 км {дождь, морось} 9/8 300 м
[Cu Sc Ci fib]
+14.5 +12.8 90 +14 +14 1020.4 1015.5 +14.3 +18.3 0.0
19 16.09 С 1 30 км 9/9 330 м
[Cu Sc]
+14.0 +12.9 93 +14 +14 1020.9 1016.0
20 16.09 СЗ 1 20 км 9/9 330 м
[Cu Sc]
+14.2 +12.8 91 +14 +14 1020.9 1016.0
21 16.09 З 2 15 км 9/9 360 м
[Cu Sc]
+14.1 +12.8 92 +14 +14 1021.1 1016.2
22 16.09 СЗ 1 15 км 9/9 360 м
[Cu Sc]
+14.0 +12.7 92 +14 +14 1021.1 1016.2
23 16.09 З 2 10 км 10/9 900 м
[Sc]
+13.9 +12.5 91 +13 +13 1021.2 1016.3
00 17.09 СЗ 1 8000 м 10/9 600 м
[Sc]
+13.9 +12.6 92 +14 +14 1021.2 1016.3
01 17.09 СЗ 2 8000 м 9/9 400 м
[Sc]
+13.7 +12.6 93 +13 +13 1020.9 1016.0
02 17.09 СЗ 2 12 км 9/9 400 м
[Sc]
+13.0 +12.3 96 +12 +12 1020.8 1015.9
03 17.09 СЗ 1 12 км 9/9 400 м
[Sc]
+12.4 +11.8 96 +12 +12 1020.7 1015.8
04 17.09 З 2-3
{3}
12 км 9/9 1000 м
[Sc]
+12.6 +11.5 93 +12 +12 1020.9 1016.0
05 17.09 З 2 25 км 9/9 870 м
[Sc]
+12.8 +11.2 90 +12 +12 1020.7 1015.8
06 17.09 З 2 30 км 9/8 600 м
[Cu Sc Ci fib]
+12.6 +11.2 91 +12 +12 1021.1 1016.2 +11.9 +14.5
07 17.09 З 3-4
{4}
35 км 9/9 1020 м
[Sc]
+13.0 +10.9 87 +12 +12 1021.1 1016.2
08 17.09 З 4 35 км 9/4 600 м
[Cu Sc Ci sp]
+14.2 +9.2 72 +13 +14 1021.9 1017.0
09 17.09 СЗ 4 40 км 9/5 600 м
[Cu Sc Ac lent Ci sp]
+15.5 +8.3 62 +15 +16 1021.9 1017.0
10 17.09 СЗ 5 40 км 9/6 900 м
[Cu Sc Ci sp]
+16.5 +7.9 57 +16 +17 1021.8 1016.9
11 17.09 СЗ 6 45 км 8/6 1200 м
[Cu Sc Ac trans Ci fib]
+16.8 +7.8 55 +16 +17 1021.7 1016.8
12 17.09 З 5 45 км 8/6 1200 м
[Cu Sc Ac trans Ci fib]
+17.1 +8.1 55 +16 +18 1021.4 1016.6
13 17.09 З 6 45 км 8/6 1200 м
[Cu Sc Ac trans Ci fib]
+18.1 +8.8 55 +18 +19 1021.1 1016.3
14 17.09 СЗ 8 45 км 8/6 1200 м
[Cu Sc Ac trans Ci fib]
+18.1 +8.9 55 +17 +18 1021.2 1016.4
15 17.09 СЗ 7 45 км 6/1 1350 м
[Cu hum Ac trans Ci fib]
+18.8 +7.0 46 +19 +19 1021.0 1016.2
16 17.09 СЗ 8 45 км 6/4 1500 м
[Cu Sc Ac trans Ci fib]
+17.4 +7.6 53 +16 +16 1021.3 1016.5
17 17.09 С 8 45 км 5/3 1500 м
[Cu Sc Ac trans Ci fib]
+14.8 +8.6 66 +13 +13 1022.2 1017.3
18 17.09 С 5 40 км 5/3 1500 м
[Sc Ac trans Ci fib]
+14.1 +5.5 56 +13 +13 1022.8 1017.9 +12.6 +19.2
19 17.09 С 5-8
{8}
35 км 3/1 1500 м
[Sc Ci fib]
+13.3 +5.2 58 +12 +12 1023.6 1018.7
20 17.09 С 3-5
{7}
35 км 4/0
[Ci fib]
+12.4 +5.9 65 +11 +11 1024.3 1019.4
21 17.09 С 2 30 км 3/0
[Ci fib]
+11.6 +6.2 69 +11 +11 1024.9 1019.9
22 17.09 СЗ 2-3
{3}
27 км 3/0
[Ci fib]
+9.9 +6.1 77 +8 +8 1025.1 1020.1
23 17.09 СЗ 1-1
{2}
27 км 3/0
[Ci fib]
+7.3 +5.4 88 +6 +6 1025.4 1020.4
00 18.09 ЮВ 1 25 км 3/0
[Ci fib]
+6.6 +5.5 93 +5 +5 1025.7 1020.6
01 18.09 штиль 0-1
{1}
25 км местами туман поземный 4/0
[Ci fib]
+6.0 +5.2 95 +5 +5 1025.8 1020.7
02 18.09 В 1-1
{2}
22 км местами туман поземный 3/0
[Ci fib]
+5.2 +4.6 96 +4 +4 1025.8 1020.7
03 18.09 штиль 0 27 км местами туман поземный 4/0
[Ci fib]
+4.8 +4.3 97 +4 +4 1026.2 1021.1
04 18.09 ЮЗ 1-2
{2}
27 км местами туман поземный 3/1 1020 м
[Sc Ci fib]
+4.3 +3.7 96 +3 +3 1026.4 1021.3
05 18.09 штиль 0-1
{2}
25 км местами туман поземный 3/1 1500 м
[Sc Ci fib]
+4.5 +4.2 98 +3 +3 1026.4 1021.3
06 18.09 С 1 25 км 3/1 600 м
[Sc Ci fib]
+5.2 +4.8 97 +4 +4 1026.8 1021.7 +4.0 +14.0
07 18.09 СВ 1-2
{2}
25 км 3/1 1440 м
[Sc Ci fib]
+7.6 +6.2 91 +7 +8 1027.3 1022.3
08 18.09 С 1-1
{1}
30 км 1/1 1500 м
[Sc Ci fib]
+11.2 +7.2 76 +11 +14 1027.9 1022.9
09 18.09 С 1 30 км 1/1 900 м
[Cu Sc Ci fib]
+13.9 +7.0 63 +14 +20 1027.9 1023.0
10 18.09 С 2-4
{5}
35 км 3/3 1080 м
[Cu hum Ci fib]
+15.0 +5.8 54 +15 +20 1027.8 1022.9
11 18.09 С 3-5
{7}
50 км 4/4 1200 м
[Cu Sc Ci fib]
+16.4 +5.6 49 +16 +20 1027.5 1022.6
12 18.09 С 3 50 км 5/5 1260 м
[Cu Sc Ci fib]
+16.1 +5.2 48 +16 +19 1027.2 1022.3
13 18.09 СЗ 4-7
{7}
50 км 3/3 1440 м
[Cu Sc]
+17.3 +5.2 45 +17 +20 1026.6 1021.7
14 18.09 С 5 50 км 5/5 1440 м
[Cu Sc]
+16.0 +7.4 57 +15 +17 1026.8 1021.9
15 18.09 СЗ 4 50 км 1/1 1260 м
[Cu Sc]
+17.5 +6.2 47 +17 +19 1026.6 1021.7
16 18.09 С 5-7
{8}
50 км 4/4 1440 м
[Cu hum]
+16.5 +4.9 46 +16 +16 1026.4 1021.5
17 18.09 С 4 50 км 8/8 1440 м
[Cu Sc]
+16.2 +6.3 52 +16 +16 1026.7 1021.8
18 18.09 С 4 50 км 9/8 1500 м
[Sc Ci fib]
+14.9 +6.6 58 +14 +14 1027.0 1022.1 +4.7 +17.9
19 18.09 С 2-3
{5}
60 км 4/4 2000 м
[Sc Ci fib]
+12.8 +6.9 67 +12 +12 1027.6 1022.7
20 18.09 С 2-3
{3}
50 км 4/0
[Ci fib]
+11.4 +7.2 75 +10 +10 1028.2 1023.2
21 18.09 С 3 50 км 4/1 2000 м
[Sc Ci fib]
+10.7 +6.9 77 +9 +9 1028.5 1023.5
22 18.09 С 3-3
{4}
50 км 5/0
[Ci fib]
+10.2 +7.1 81 +8 +8 1028.7 1023.7
23 18.09 С 2-2
{3}
50 км 5/0
[Ci fib]
+9.6 +7.0 84 +8 +8 1029.1 1024.1
00 19.09 С 2 50 км 5/0
[Ci fib]
+8.3 +6.8 90 +6 +6 1029.3 1024.3
01 19.09 ЮВ 1-1
{2}
40 км местами туман поземный 4/0
[Ci fib]
+6.1 +5.3 95 +5 +5 1029.4 1024.3
02 19.09 штиль 0-1
{1}
40 км местами туман поземный ясно +5.0 +4.3 95 +4 +4 1029.6 1024.5
03 19.09 СВ 1-2
{2}
25 км местами туман поземный ясно +4.9 +4.7 99 +3 +3 1029.6 1024.5
04 19.09 С 1-1
{2}
25 км местами туман поземный ясно +4.3 +4.2 99 +3 +3 1029.6 1024.5
05 19.09 В 2-2
{2}
15 км местами туман поземный 1/0
[Ci fib]
+3.1 +2.6 97 -0 -0 1029.9 1024.8
06 19.09 СВ 1 20 км местами туман поземный 1/0
[Ac trans Ci fib]
+5.1 +4.5 96 +4 +4 1030.3 1025.2 +3.1 +14.9
07 19.09 С 1-1
{3}
15 км 3/3 1500 м
[Sc Ac trans Ci fib]
+8.1 +6.0 87 +7 +8 1030.8 1025.8
08 19.09 СВ 1-2
{2}
20 км 3/1 1500 м
[Sc Ci fib]
+11.4 +7.5 77 +11 +14 1031.3 1026.3
09 19.09 С 3 35 км 5/1 840 м
[Cu hum Ci fib]
+13.8 +6.2 60 +13 +16 1031.6 1026.6
10 19.09 СВ 3 45 км 5/1 1200 м
[Cu hum Ci fib]
+14.6 +4.3 50 +14 +19 1031.6 1026.7
11 19.09 С 4 50 км 9/3 1260 м
[Cu hum Ci fib]
+14.7 +4.0 49 +14 +17 1031.3 1026.4
12 19.09 С 2 55 км 3/1 1380 м
[Cu hum Ci fib]
+16.8 +3.5 41 +17 +24 1031.0 1026.1
13 19.09 СЗ 3 55 км 5/1 1500 м
[Cu hum Ci fib]
+16.7 +3.2 40 +17 +22 1030.6 1025.7
14 19.09 С 4 55 км 6/1 1500 м
[Cu hum Ci fib]
+17.1 +3.6 41 +17 +20 1030.4 1025.5
15 19.09 СВ 4 55 км 9/1 1500 м
[Cu hum Ci fib]
+16.9 +3.5 41 +16 +18 1029.9 1025.0
16 19.09 С 3 55 км 6/1 1500 м
[Cu hum Ci fib]
+16.6 +3.5 42 +16 +17 1030.0 1025.1
17 19.09 С 3 60 км 6/1 1500 м
[Cu hum Ci fib]
+16.1 +3.6 43 +16 +16 1029.9 1025.0
18 19.09 С 2 55 км 8/0
[Ci fib]
+14.3 +4.6 52 +14 +14 1030.1 1025.2 +5.1 +17.6
19 19.09 СВ 2-2
{4}
55 км 4/0
[Ci fib]
+12.3 +4.8 60 +12 +12 1030.4 1025.4
20 19.09 СВ 2-2
{3}
55 км 3/0
[Ci fib]
+9.0 +4.8 75 +7 +7 1030.7 1025.7
21 19.09 В 1 55 км 6/0
[Ci fib]
+8.0 +4.9 81 +7 +7 1031.1 1026.0
22 19.09 СВ 2-2
{2}
55 км 5/0
[Ci fib]
+7.1 +4.3 82 +5 +5 1031.1 1026.0
23 19.09 С 1-1
{2}
55 км 4/0
[Ci fib]
+6.8 +4.8 87 +6 +6 1030.9 1025.8
00 20.09 С 1 55 км 5/0
[Ci fib]
+6.3 +4.7 89 +5 +5 1030.8 1025.7
01 20.09 С 1-2
{2}
55 км 4/0
[Ci fib]
+5.8 +5.1 95 +4 +4 1030.6 1025.5
02 20.09 С 1-2
{2}
55 км 3/0
[Ci fib]
+4.9 +4.1 95 +3 +3 1030.3 1025.2
03 20.09 В 1 55 км 3/0
[Ci fib]
+4.4 +3.7 95 +3 +3 1030.3 1025.2
04 20.09 В 1-2
{2}
55 км 4/0
[Ci fib]
+3.9 +3.2 95 +2 +2 1029.8 1024.7
05 20.09 В 1-2
{2}
50 км 6/0
[Ci fib]
+4.1 +3.1 93 +3 +3 1029.8 1024.7
06 20.09 СВ 1 40 км 6/0
[Ci fib]
+4.7 +3.7 93 +3 +3 1030.1 1025.0 +3.6 +14.2
07 20.09 В 1-2
{3}
40 км 8/0
[Ci fib]
+7.8 +5.4 85 +7 +8 1030.3 1025.2
08 20.09 ЮВ 1-3
{3}
40 км 9/0
[Ci fib]
+11.7 +4.5 61 +12 +15 1030.3 1025.3
09 20.09 СЗ 1 40 км 9/0
[Ci fib]
+14.9 +4.7 50 +16 +20 1030.1 1025.2
10 20.09 Ю 3-5
{5}
40 км 8/0
[Ci fib]
+16.5 +3.7 42 +16 +21 1029.7 1024.8
11 20.09 Ю 1-3
{5}
45 км 8/0
[Ci fib]
+17.2 +4.0 41 +18 +26 1029.2 1024.3
12 20.09 ЮВ 3 50 км 4/0
[Ci fib]
+19.1 +3.4 35 +20 +26 1028.5 1023.6
13 20.09 С 1-3
{6}
50 км 1/0
[Ci fib]
+19.5 +3.0 33 +21 +29 комфорт 1027.8 1023.0
14 20.09 СВ 2-4
{7}
50 км 1/0
[Ci fib]
+20.1 +3.5 33 +21 +26 комфорт 1026.9 1022.1
15 20.09 В 4 50 км 1/0
[Ci fib]
+20.4 +4.4 35 +21 +23 комфорт 1026.3 1021.5
17 20.09 СВ 4-6
{6}
50 км 1/0
[Ci fib]
+18.8 +4.9 40 +19 +19 1025.4 1020.6
18 20.09 СВ 3 50 км 1/0
[Ci fib]
+16.8 +4.8 45 +17 +17 1025.6 1020.7 +4.5 +21.0
19 20.09 СВ 3-5
{6}
60 км 1/0
[Ci fib]
+14.0 +4.6 53 +13 +13 1025.3 1020.4
22 20.09 В 3-3
{4}
50 км ясно +9.9 +5.0 72 +8 +8 1024.3 1019.3

 

Местоположение метеостанции Дюссельдорф (Германия): широта 51.28 долгота 6.78 высота над уровнем моря 45 м.

В архиве по умолчанию представлена погода в Дюссельдорфе за последнюю неделю. Архивные данные за месяц целиком и за предыдущие месяцы, начиная с января 2011 года, Вы можете получить, выбрав интересующий диапазон дат из раскрывающегося списка и нажав кнопку "Ввод!".


*Определитесь, кто Вы:
робот инопланетянин человек

Внимание! Время в таблицах - всемирное. Для получения местного времени необходимо прибавить поправку, которая равна 1 ч.

Смотрите также архив погоды в соседних городах и на ближайших метеорологических станциях:

Погода в Эссене (Германия) (19 км)
Погода в Арсене (Нидерланды) (47 км)
Погода в Нёрфенихе (Германия) (51 км)
Погода в Кёльне (Германия) (53 км)
Погода в Люденшайде (Германия) (61 км)
Погода в Гайленкирхене (Германия) (62 км)
Погода в Бонне (Германия) (68 км)
Погода в Элле (Нидерланды) (71 км)
Погода в Ахен-Орсбахе (Германия) (77 км)
Погода в Маастрихте (Нидерланды) (81 км)

Пояснения к столбцам:

Ветер - указаны скорость ветра в м/с - средняя за 10 мин, порывы в срок и между сроками (в фигурных скобках) и направление, откуда дует ветер: С - северный, СВ - северо-восточный, В - восточный, ЮВ - юго-восточный, Ю - южный, ЮЗ - юго-западный, З - западный, СЗ - северо-западный.
Видимость - горизонтальная дальность видимости в метрах или километрах. При видимости от 1 до 10 км при отсутствии осадков обычно наблюдается дымка, при ухудшении видимости до 1 км и менее - туман. В сухую погоду видимость может ухудшаться дымом, пылью или мглою.
Явления - указаны атмосферные явления, наблюдавшиеся в срок или в последний час перед сроком; фигурными скобками обозначены явления, наблюдавшиеся между сроками (за 1-3 часа до срока); квадратными скобками обозначены град или гололедные отложения с указанием их диаметра в мм.
Облачность - указаны через наклонную черту общая и нижняя облачность в баллах и высота нижней границы облаков в метрах; квадратными скобками обозначены формы облаков: Ci - перистые, Cs - перисто-слоистые, Cc - перисто-кучевые, Ac - высококучевые, As - высокослоистые, Sc - слоисто-кучевые, Ns - слоисто-дождевые, Cu - кучевые, Cb - кучево-дождевые. Подробнее классификацию облаков см. в Атласе облаков (PDF).
T - Температура воздуха - температура, измеренная на высоте 2 м над землей.
Td - Температура точки росы - температура, при понижении до которой содержащийся в воздухе водяной пар достигнет насыщения.
f - Относительная влажность воздуха - влажноcть воздуха, измеренная на высоте 2 м над землей.
Te - Эффективная температура - температура, которую ощущает одетый по сезону человек в тени. Характеристика душности погоды. При расчете учитывается влияние влажности воздуха и скорости ветра на теплоощущения человека.
Tes - Эффективная температура на солнце - температура, которую ощущает человек, с поправкой на солнечный нагрев. Характеристика знойности погоды. Зависит от высоты солнца над горизонтом, облачности и скорости ветра. Ночью, в пасмурную погоду, а также при ветре 12 м/с и более поправка равна нулю.
P - Атмосферное давление - приведенное к уровню моря атмосферное давление.
Po - Атмосферное давление - измеренное на уровне метеостанции атмосферное давление.
Tmin - Минимальная температура - минимум температуры воздуха на высоте 2 м над землей.
Tmax - Максимальная температура - максимум температуры воздуха на высоте 2 м над землей.
R - Количество осадков - Количество выпавших осадков за период времени, мм. При наведении курсора мыши на число - период времени, за который выпало указанное количество осадков.
R24 - Количество осадков - Количество выпавших осадков за 24 часа, мм.
S - Снежный покров - Высота снежного покрова, см. При наведении курсора мыши на число - состояние снежного покрова и степень покрытия местности в баллах.